Live-Position
3D-Globus wird geladen...
Über OneWeb SL0576
Group: 3 satellites
Beschreibung wird geladen...
Nächste Überflüge
Passes for default location (London). Set your location on the main map for personalized predictions.
Höhenverlauf
Loading altitude history...
No altitude history available
Zweizeiliger Elementsatz
1 56065U 23043V 26124.74334587 -.00000001 00000-0 -35902-4 0 9996
2 56065 87.9095 237.4008 0002112 107.0780 253.0582 13.16594369153242
Epoch: 4. Mai 2026 •
Age: 11 hours
Aktueller Status
Höhe 1209.9 km
Geschwindigkeit 7.26 km/s
Subsatellitenpunkt 81.22°N,
50.13°W
Startdatum 26. März 2023
Alter 3.1 years
Typ internet
Startgruppe
Unknown Vehicle •
OneWeb Launch 18 •
36 satellites
OneWeb SL0537
56046
OneWeb SL0538 56047
OneWeb SL0546 56048
OneWeb SL0547 56049
OneWeb SL0548 56050
OneWeb SL0549 56051
OneWeb SL0550 56052
OneWeb SL0551 56053
OneWeb SL0552 56054
OneWeb SL0553 56055
OneWeb SL0554 56056
OneWeb SL0555 56057
OneWeb SL0557 56058
OneWeb SL0558 56059
OneWeb SL0559 56060
OneWeb SL0566 56061
OneWeb SL0568 56062
OneWeb SL0574 56063
OneWeb SL0575 56064
OneWeb SL0577 56066
...and 15 more
Technische Details
Klassifizierung Payload
Masse 148.00 kg
Trockenmasse 140.00 kg
Gesamtmasse 148.00 kg
Länge 1.30 m
Durchmesser 1.00 m
Spannweite 5.00 m
Form Trapezoid+2 pan
Hersteller ONEWUS
Bus-Typ ARROW
Phasenstatus In Orbit
Besitzer/Staat ONEWEBN/UK
Most Searched
Loading...